Russellville, AR

12:29 AM CDT on October 24, 2019 (GMT -0500)
Russellville Regional

Weather History for KRUE - August, 2019

Change the Weather History Date:

Thursday, August 1, 2019

  Actual Average (KHOT) Record (KHOT)
Temperature  
Mean Temperature 79 °F -  
Max Temperature 87 °F 93 °F 115 °F (1986)
Min Temperature 71 °F 69 °F 56 °F (1971)
Cooling Degree Days 14    
Growing Degree Days 29 (Base 50)    
Moisture  
Dew Point 70 °F    
Average Humidity 80    
Maximum Humidity 94    
Minimum Humidity 59    
Precipitation  
Precipitation 0.34 in - - ()
Sea Level Pressure  
Sea Level Pressure 30.06 in    
Wind  
Wind Speed 3 mph (ESE)    
Max Wind Speed 18 mph    
Max Gust Speed 26 mph    
Visibility 8 miles    
Events Fog , Rain , Thunderstorm    
Averages and records for this station are not official NWS values.
T = Trace of Precipitation, MM = Missing Value Source: NWS Daily Summary

Daily Weather History Graph

Daily Weather History Graph

Search for Another Location

Airport or City:

Astronomy

Aug. 01, 2019 Rise Set
Actual Time 6:21 AM CDT 8:15 PM CDT
Civil Twilight 5:53 AM CDT 8:43 PM CDT
Nautical Twilight 5:19 AM CDT 9:17 PM CDT
Astronomical Twilight 4:43 AM CDT 9:53 PM CDT
Moon 6:47 AM CDT (8/1) 9:04 PM CDT (8/1)
Length of Visible Light 14h 50m
Length of Day
13h 54m
New Moon, 1% of the Moon is Illuminated
Aug 1
New Moon
Aug 7
First Quarter
Aug 15
Full
Aug 23
Last Quarter
Aug 30
New

Hourly Weather History & Observations

Time (CDT) Temp. Heat Index Dew Point Humidity Pressure Visibility Wind Dir Wind Speed Gust Speed Precip Events Conditions
12:53 AM 75.0 °F - 69.1 °F 82% 30.02 in 10.0 mi South 3.5 mph - N/A   Clear
1:53 AM 75.0 °F - 69.1 °F 82% 30.01 in 10.0 mi Calm Calm - N/A   Clear
2:53 AM 73.9 °F - 69.1 °F 85% 30.04 in 10.0 mi Calm Calm - N/A   Clear
3:53 AM 73.9 °F - 70.0 °F 87% 30.01 in 10.0 mi Calm Calm - N/A   Clear
4:53 AM 73.9 °F - 70.0 °F 87% 30.03 in 10.0 mi Calm Calm - N/A   Clear
5:53 AM 73.0 °F - 69.1 °F 87% 30.04 in 10.0 mi Calm Calm - N/A   Partly Cloudy
6:53 AM 73.9 °F - 69.1 °F 85% 30.05 in 10.0 mi Calm Calm - N/A   Partly Cloudy
7:53 AM 75.0 °F - 68.0 °F 79% 30.06 in 10.0 mi East 3.5 mph - N/A   Overcast
8:05 AM 75.0 °F - 69.1 °F 82% 30.08 in 10.0 mi East 3.5 mph - N/A Thunderstorm Overcast
8:16 AM 75.0 °F - 68.0 °F 79% 30.09 in 9.0 mi East 4.6 mph - 0.00 in Rain , Thunderstorm Light Thunderstorms and Rain
8:31 AM 73.9 °F - 69.1 °F 85% 30.15 in 4.0 mi North 18.4 mph 26.5 mph 0.07 in Rain , Thunderstorm Rain
8:35 AM 73.0 °F - 69.1 °F 87% 30.13 in 1.5 mi Variable 4.6 mph 26.5 mph 0.21 in Rain , Thunderstorm Heavy Thunderstorms and Rain
8:43 AM 72.0 °F - 69.1 °F 91% 30.13 in 0.5 mi ENE 9.2 mph - 0.34 in Fog , Rain , Thunderstorm Heavy Thunderstorms and Rain
8:46 AM 72.0 °F - 69.1 °F 91% 30.12 in 1.0 mi ENE 6.9 mph - 0.34 in Rain , Thunderstorm Thunderstorms and Rain
8:50 AM 71.6 °F - 69.8 °F 94% 30.12 in 3.0 mi SSE 4.6 mph - 0.34 in Rain , Thunderstorm Light Thunderstorms and Rain
8:53 AM 73.0 °F - 69.1 °F 87% 30.10 in 6.0 mi South 4.6 mph - 0.34 in Rain , Thunderstorm Light Thunderstorms and Rain
8:58 AM 73.0 °F - 70.0 °F 90% 30.12 in 7.0 mi East 3.5 mph - 0.00 in Thunderstorm Mostly Cloudy
9:22 AM 73.0 °F - 70.0 °F 90% 30.13 in 10.0 mi East 6.9 mph - 0.00 in   Partly Cloudy
9:53 AM 75.0 °F - 70.0 °F 84% 30.12 in 10.0 mi Calm Calm - 0.00 in   Clear
10:53 AM 78.1 °F - 70.0 °F 76% 30.12 in 10.0 mi East 4.6 mph - N/A   Scattered Clouds
11:53 AM 81.0 °F 84.4 °F 70.0 °F 69% 30.11 in 10.0 mi Calm Calm - N/A   Clear
12:53 PM 82.0 °F 85.9 °F 70.0 °F 67% 30.09 in 10.0 mi Variable 3.5 mph - N/A   Clear
1:53 PM 84.0 °F 88.4 °F 70.0 °F 63% 30.06 in 10.0 mi South 3.5 mph - N/A   Clear
2:53 PM 84.9 °F 88.8 °F 69.1 °F 59% 30.04 in 10.0 mi Calm Calm - N/A   Partly Cloudy
3:53 PM 86.0 °F 91.5 °F 71.1 °F 61% 30.02 in 10.0 mi Variable 3.5 mph - N/A   Clear
4:53 PM 87.1 °F 93.6 °F 72.0 °F 61% 30.00 in 10.0 mi South 4.6 mph - N/A   Clear
5:53 PM 86.0 °F 90.7 °F 70.0 °F 59% 29.99 in 10.0 mi South 3.5 mph - N/A   Partly Cloudy
6:53 PM 86.0 °F 91.5 °F 71.1 °F 61% 29.98 in 10.0 mi Calm Calm - N/A   Clear
7:53 PM 80.1 °F 84.2 °F 73.0 °F 79% 29.98 in 10.0 mi Calm Calm - N/A   Clear
8:53 PM 78.1 °F - 73.9 °F 87% 29.99 in 10.0 mi Calm Calm - N/A   Scattered Clouds
9:53 PM 75.9 °F - 72.0 °F 87% 30.02 in 10.0 mi Calm Calm - N/A   Partly Cloudy
10:53 PM 75.9 °F - 72.0 °F 87% 30.03 in 10.0 mi Calm Calm - N/A   Mostly Cloudy
11:53 PM 78.1 °F - 71.1 °F 79% 30.03 in 10.0 mi Variable 3.5 mph - N/A   Scattered Clouds